Regional Weather Roundup
Issued by NWS

Home | Current Version | Previous Version | Graphics & Text | Print | Product List | Glossary On
Versions: 1 2 3 4 5 6 7 8 9 10 11 12 13 14 15 16 17 18 19 20 21 22 23 24 25 26 27 28 29 30 31 32 33 34 35 36 37 38 39 40 41 42 43 44 45 46 47 48 49 50
000
ASUS45 KCYS 102210
RWRWY

WYOMING REGIONAL WEATHER ROUNDUP
NATIONAL WEATHER SERVICE CHEYENNE WY
300 PM MST WED FEB 10 2016

NOTE:  "FAIR" INDICATES FEW OR NO CLOUDS BELOW 12,000 FEET
WITH NO SIGNIFICANT WEATHER AND/OR OBSTRUCTIONS TO VISIBILITY.

WYZ001-102300-
YELLOWSTONE NATIONAL PARK

CITY           SKY/WX    TMP DP  RH WIND       PRES   REMARKS
LK YELLOWSTONE   N/A     39  21  48 CALM      30.32F
W YELLOWSTONE  NOT AVBL

$$
WYZ002>013-054>058-071-098>099-102300-
NORTHERN WYOMING

CITY           SKY/WX    TMP DP  RH WIND       PRES   REMARKS
JACKSON        SUNNY     19  19 100 CALM      30.35F
CODY           FAIR      57  16  19 W16G24    30.11S
GREYBULL       FAIR      50  27  40 CALM      30.11
WORLAND        FAIR      43  27  53 CALM      30.12
SHERIDAN       MOSUNNY   59  18  20 NW14      30.02S
BUFFALO        FAIR      54  25  32 N14G22    30.08R
GILLETTE       FAIR      57  26  30 NW16G25   30.04R
HULETT         FAIR      54  25  32 N14G20    30.03S
NEWCASTLE      FAIR      55  19  24 NW22G31   30.02R

$$
WYZ014>020-022>026-101>103-102300-
CENTRAL WYOMING

CITY           SKY/WX    TMP DP  RH WIND       PRES   REMARKS
BIG PINEY      FAIR      40  20  44 SW3       30.31
PINEDALE       FAIR      43  23  45 NW9       30.31S
DUBOIS         FAIR      50  10  20 NW21G26   30.23R
LANDER         FAIR      49  24  37 NW5       30.14
RIVERTON       FAIR      38  24  57 CALM      30.15
CASPER         FAIR      42  23  46 S15       30.13S
DOUGLAS        FAIR      51  26  37 NW14G23     N/A

$$
WYZ021-027>030-104>119-102300-
SOUTHERN WYOMING

CITY           SKY/WX    TMP DP  RH WIND       PRES   REMARKS
EVANSTON       FAIR      39  23  52 S9        30.37  WCI  33
KEMMERER       FAIR      37  23  56 SW9       30.35F WCI  31
FORT BRIDGER   CLEAR     43  23  45 W22       30.38S
ROCK SPRINGS   FAIR      42  18  37 SW15G24   30.32
DIXON          FAIR      33  22  63 CALM      30.35S
RAWLINS        FAIR      38  19  46 W23G32    30.24R WCI  27
SARATOGA       FAIR      41  19  42 W30       30.22S
LARAMIE        FAIR      46  17  31 W23       30.15R
CHEYENNE       FAIR      58  13  17 NW18G36   30.09R
TORRINGTON     FAIR      62  21  20 NW16G23   30.03R
PINE BLUFFS    FAIR      55  23  28 NW23G31   30.07S

$$



USA.gov is the U.S. government's official web portal to all federal, state and local government web resources and services.